Sedalia, MO

4:09 AM CDT on September 28, 2016 (GMT -0500)
Sedalia Memorial

Weather History for KDMO - December, 2013

Change the Weather History Date:

Sunday, December 8, 2013

  Actual Average Record
Temperature  
Mean Temperature 23 °F 37 °F  
Max Temperature 26 °F 45 °F 70 °F (1966)
Min Temperature 20 °F 28 °F 2 °F (1976)
Degree Days  
Heating Degree Days 42 28  
Month to date heating degree days 256 214  
Since 1 July heating degree days 1205 1059  
Cooling Degree Days 0 0  
Month to date cooling degree days 0 0  
Year to date cooling degree days 1485 1490  
Moisture  
Dew Point 19 °F    
Average Humidity 72    
Maximum Humidity 92    
Minimum Humidity 51    
Precipitation  
Precipitation T in 0.07 in 1.11 in (1980)
Month to date precipitation T 0.60  
Year to date precipitation 39.06 39.39  
Sea Level Pressure  
Sea Level Pressure 30.13 in    
Wind  
Wind Speed 9 mph (South)    
Max Wind Speed 15 mph    
Max Gust Speed 20 mph    
Visibility 5 miles    
Events Snow    
T = Trace of Precipitation, MM = Missing Value Source: NWS Daily Summary

Daily Weather History Graph

Daily Weather History Graph

Search for Another Location

Airport or City:

Trip Planner

Search our weather history database for the weather conditions in past years. The results will help you decide how hot, cold, wet, or windy it might be!

Date:

Astronomy

Dec. 08, 2013 Rise Set
Actual Time 7:18 AM CST 4:51 PM CST
Civil Twilight 6:48 AM CST 5:20 PM CST
Nautical Twilight 6:15 AM CST 5:53 PM CST
Astronomical Twilight 5:43 AM CST 6:26 PM CST
Moon 11:42 AM CST (12/8) 11:37 PM CST (12/8)
Length of Visible Light 10h 31m
Length of Day
9h 32m
Waxing Crescent, 40% of the Moon is Illuminated
Dec 8
Waxing Crescent
Dec 9
First Quarter
Dec 17
Full
Dec 25
Last Quarter
Jan 1
New

Hourly Weather History & Observations

Time (CST) Temp. Windchill Dew Point Humidity Pressure Visibility Wind Dir Wind Speed Gust Speed Precip Events Conditions
12:53 AM 21.0 °F 10.6 °F 6.1 °F 53% 30.42 in 10.0 mi East 9.2 mph - N/A   Overcast
1:53 AM 19.9 °F 7.9 °F 8.1 °F 60% 30.38 in 9.0 mi East 11.5 mph - 0.00 in Snow Light Snow
2:53 AM 19.9 °F 7.9 °F 10.0 °F 65% 30.35 in 10.0 mi East 11.5 mph - 0.00 in   Overcast
3:53 AM 19.9 °F 9.3 °F 10.0 °F 65% 30.31 in 10.0 mi East 9.2 mph - N/A   Overcast
4:53 AM 19.9 °F 9.3 °F 10.9 °F 68% 30.28 in 10.0 mi East 9.2 mph - N/A   Overcast
5:53 AM 19.9 °F 8.6 °F 10.9 °F 68% 30.25 in 10.0 mi East 10.4 mph - N/A   Overcast
6:53 AM 21.0 °F 10.6 °F 12.0 °F 68% 30.23 in 10.0 mi East 9.2 mph - N/A   Overcast
7:46 AM 21.0 °F 9.3 °F 12.9 °F 71% 30.19 in 10.0 mi ESE 11.5 mph - N/A   Overcast
7:53 AM 21.0 °F 9.9 °F 14.0 °F 74% 30.22 in 10.0 mi ESE 10.4 mph - N/A   Overcast
8:24 AM 21.0 °F 9.9 °F 15.1 °F 78% 30.18 in 1.8 mi SE 10.4 mph - 0.00 in Snow Light Snow
8:34 AM 21.0 °F 9.9 °F 16.0 °F 81% 30.18 in 1.0 mi SE 10.4 mph - 0.00 in Snow Light Snow
8:50 AM 21.2 °F 10.9 °F 17.6 °F 86% 30.17 in 1.2 mi SE 9.2 mph - 0.00 in Snow Light Snow
8:53 AM 21.0 °F 10.6 °F 17.1 °F 85% 30.22 in 1.2 mi ESE 9.2 mph - 0.00 in Snow Light Snow
9:13 AM 21.0 °F 8.6 °F 17.1 °F 85% 30.16 in 1.8 mi ESE 12.7 mph - 0.00 in Snow Light Snow
9:34 AM 21.0 °F 10.6 °F 17.1 °F 85% 30.16 in 1.8 mi SE 9.2 mph - 0.00 in Snow Light Snow
9:45 AM 21.9 °F 10.4 °F 17.1 °F 82% 30.15 in 2.0 mi SE 11.5 mph - 0.00 in Snow Light Snow
9:53 AM 21.9 °F 11.0 °F 17.1 °F 82% 30.19 in 2.5 mi SE 10.4 mph - 0.00 in Snow Light Snow
10:22 AM 21.9 °F 10.4 °F 17.1 °F 82% 30.14 in 4.0 mi SE 11.5 mph - 0.00 in   Haze
10:40 AM 23.0 °F 13.9 °F 18.0 °F 81% 30.13 in 4.0 mi SE 8.1 mph - 0.00 in   Haze
10:46 AM 23.0 °F 13.9 °F 18.0 °F 81% 30.13 in 2.5 mi SE 8.1 mph - 0.00 in Snow Light Snow
10:50 AM 23.0 °F 13.9 °F 17.6 °F 80% 30.13 in 1.8 mi SE 8.1 mph - 0.00 in Snow Light Snow
10:53 AM 23.0 °F 13.1 °F 19.0 °F 85% 30.17 in 1.5 mi SE 9.2 mph - 0.00 in Snow Light Snow
11:01 AM 23.0 °F 14.7 °F 19.0 °F 85% 30.12 in 1.8 mi SE 6.9 mph - 0.00 in Snow Light Snow
11:04 AM 24.1 °F 15.2 °F 19.0 °F 81% 30.12 in 2.0 mi SSE 8.1 mph - 0.00 in Snow Light Snow
11:17 AM 24.1 °F 16.0 °F 19.0 °F 81% 30.12 in 3.0 mi SSE 6.9 mph - 0.00 in   Haze
11:29 AM 24.1 °F 14.4 °F 19.0 °F 81% 30.11 in 2.5 mi SSE 9.2 mph - 0.00 in   Haze
11:45 AM 24.1 °F 16.0 °F 19.0 °F 81% 30.10 in 1.8 mi SSE 6.9 mph - 0.00 in Snow Light Snow
11:53 AM 24.1 °F 16.0 °F 19.9 °F 84% 30.13 in 1.0 mi SSE 6.9 mph - 0.00 in Snow Light Snow
12:15 PM 24.1 °F 15.2 °F 19.9 °F 84% 30.06 in 1.2 mi SSE 8.1 mph - 0.00 in Snow Light Snow
12:26 PM 24.1 °F 15.2 °F 19.9 °F 84% 30.05 in 1.8 mi SE 8.1 mph - 0.00 in Snow Light Snow
12:36 PM 24.1 °F 17.0 °F 19.9 °F 84% 30.04 in 2.0 mi SSE 5.8 mph - 0.00 in Snow Light Snow
12:53 PM 25.0 °F 15.5 °F 19.9 °F 81% 30.07 in 6.0 mi South 9.2 mph - 0.00 in   Haze
1:53 PM 25.0 °F 17.1 °F 19.9 °F 81% 30.04 in 10.0 mi SSW 6.9 mph - N/A   Overcast
2:53 PM 25.0 °F 18.1 °F 19.0 °F 78% 30.04 in 10.0 mi SW 5.8 mph - N/A   Overcast
3:53 PM 26.1 °F 18.4 °F 19.9 °F 78% 30.04 in 10.0 mi SSW 6.9 mph - N/A   Overcast
4:03 PM 26.1 °F 19.4 °F 19.9 °F 78% 30.01 in 10.0 mi SSW 5.8 mph - N/A   Overcast
4:39 PM 25.0 °F 18.1 °F 21.0 °F 85% 30.00 in 7.0 mi SSW 5.8 mph - N/A   Overcast
4:53 PM 25.0 °F 18.1 °F 21.0 °F 85% 30.04 in 6.0 mi SSW 5.8 mph - N/A   Overcast
5:42 PM 25.0 °F 19.3 °F 21.9 °F 88% 30.02 in 6.0 mi SW 4.6 mph - N/A   Overcast
5:53 PM 25.0 °F 18.1 °F 21.9 °F 88% 30.06 in 5.0 mi SW 5.8 mph - N/A   Overcast
6:05 PM 25.0 °F 19.3 °F 23.0 °F 92% 30.03 in 4.0 mi SW 4.6 mph - N/A   Overcast
6:36 PM 25.0 °F 19.3 °F 23.0 °F 92% 30.05 in 3.0 mi WSW 4.6 mph - N/A   Overcast
6:53 PM 26.1 °F 21.9 °F 23.0 °F 88% 30.09 in 3.0 mi WSW 3.5 mph - N/A   Overcast
7:09 PM 26.1 °F 19.4 °F 23.0 °F 88% 30.07 in 4.0 mi WSW 5.8 mph - N/A   Overcast
7:28 PM 26.1 °F 18.4 °F 24.1 °F 92% 30.07 in 3.0 mi West 6.9 mph - N/A   Overcast
7:49 PM 26.6 °F 21.2 °F 23.0 °F 86% 30.07 in 3.0 mi West 4.6 mph - N/A   Overcast
7:53 PM 26.1 °F 18.4 °F 24.1 °F 92% 30.11 in 3.0 mi West 6.9 mph - N/A   Overcast
8:02 PM 26.1 °F 18.4 °F 23.0 °F 88% 30.07 in 2.5 mi West 6.9 mph - N/A   Overcast
8:09 PM 26.1 °F 18.4 °F 23.0 °F 88% 30.08 in 3.0 mi West 6.9 mph - N/A   Overcast
8:20 PM 26.1 °F 18.4 °F 24.1 °F 92% 30.08 in 2.5 mi WNW 6.9 mph - N/A   Overcast
8:28 PM 26.1 °F 17.6 °F 23.0 °F 88% 30.08 in 2.5 mi West 8.1 mph - N/A   Overcast
8:53 PM 26.1 °F 17.6 °F 23.0 °F 88% 30.12 in 2.5 mi West 8.1 mph - N/A   Overcast
9:00 PM 26.1 °F 18.4 °F 23.0 °F 88% 30.08 in 2.5 mi West 6.9 mph - N/A   Overcast
9:19 PM 25.0 °F 14.8 °F 23.0 °F 92% 30.09 in 2.5 mi West 10.4 mph - N/A   Overcast
9:30 PM 25.0 °F 16.3 °F 23.0 °F 92% 30.09 in 2.5 mi West 8.1 mph - N/A   Overcast
9:42 PM 25.0 °F 16.3 °F 23.0 °F 92% 30.10 in 3.0 mi WNW 8.1 mph - N/A   Overcast
9:53 PM 25.0 °F 14.2 °F 23.0 °F 92% 30.14 in 4.0 mi West 11.5 mph - N/A   Overcast
10:36 PM 25.0 °F 16.3 °F 21.9 °F 88% 30.11 in 7.0 mi WNW 8.1 mph - N/A   Overcast
10:43 PM 25.0 °F 16.3 °F 21.9 °F 88% 30.11 in 8.0 mi West 8.1 mph - N/A   Overcast
10:53 PM 25.0 °F 16.3 °F 21.9 °F 88% 30.15 in 8.0 mi West 8.1 mph - N/A   Overcast
11:10 PM 25.0 °F 16.3 °F 21.9 °F 88% 30.12 in 8.0 mi West 8.1 mph - N/A   Overcast
11:46 PM 25.0 °F 15.5 °F 21.9 °F 88% 30.14 in 8.0 mi West 9.2 mph - N/A   Overcast
11:53 PM 25.0 °F 14.2 °F 21.9 °F 88% 30.17 in 9.0 mi West 11.5 mph - N/A   Overcast